Location: ???????
(54.6339°N, 39.4245°E)
Time: 13:45:51
(UTC+00:00)

SL-24 R/B - Pass Details

Date: 19 May 2025
Orbit: 623 x 1072 km, 98.1° (Epoch: 19 June)

Event Time Altitude Azimuth Distance (km) Brightness Sun altitude
Rises 19:19:58 0° 15° (NNE) 2,929 8.3 -11.2°
Reaches altitude 10° 19:22:09 10° 17° (NNE) 2,010 7.4 -11.3°
Maximum altitude 19:26:28 81° 105° (ESE) 647 4.1 -11.6°
Drops below altitude 10° 19:30:55 10° 193° (SSW) 2,063 6.3 -11.9°
Enters shadow 19:30:55 10° 193° (SSW) 2,066 6.3 -11.9°
